SL-14 DEB, 45337

Orbit data source: Space-Track

SL-14 DEB, 45337 is space debris in LEO originally from a launch on Thu, 15 Aug 1991 UTC launched from the Plesetsk Missile And Space Complex (PKMTR). Debris objects in space refer to the collection of defunct objects orbiting the Earth. Examples of debris include non-operational satellites, rocket bodies, and fragments generated from explosions, collisions, or faulty payload assembly.

Loading next visibility...
Identifier
45337, 1991-056CB
Orbit
LEO
Country
Flag of CISCIS
Related business
Manufacturer
Unknown
Mission
Spacecraft
Bus & Motor
Unknown
Mass
Unknown
Launch date (UTC)
1991-08-15 (35 years ago)
Launch vehicle
Unknown
Launch site
Plesetsk Missile And Space Complex (PKMTR)
Object type
Payload
Rocket body
Debris
Shape & HBR
Unknown shape, 0.1 m
Radar Cross Section
Small (<0.1 m²)

Expand to show TLE details & history
Last TLE update: 4 days ago

TLE from 4 days ago
0 SL-14 DEB
1 45337U 91056CB  26169.38637709 -.00000162  00000-0 -47805-3 0  9998
2 45337  82.5772 157.6215 0043183 336.7028  23.2134 13.13102640301516
Epoch: 2026-06-18T09:16Z
TLE epoch observation values (Epoch: 2026-06-18T09:16:22.980Z)
Latitude
-0.00003°
Longitude
111.8953°
Altitude
1,183.88 km
Speed
7.276 km/s
True Right ascension
10h 30m 29s
True Declination
0° 00' 00"
Sunlit
Object was in daylight at epoch
Visualization orbit readout
Latitude
Unknown
Longitude
Unknown
Altitude
Unknown
Speed
Unknown
Apparent Right ascension
Unknown
Apparent Declination
Unknown
Sunlit
N/A
Visualization observer readout
Local Sidereal Time
21:35:15
Azimuth
Unknown
Elevation
Unknown
Doppler factor
Unknown
Orbital elements
Apogee altitude
1,241.191 km
Perigee altitude
1,175.669 km
Semi-major axis
7,586.567 km
Eccentricity
0.00432
Inclination
82.5772°
RAAN
157.6215°
Arg. of periapsis
336.7028°
True anomaly
23.40942°
Mean anomaly
23.2134°
Eccentric anomaly
23.31131°
Mean motion
3.28455 °/min
Orbital period
109.6 mins
BSTAR
-0.00047805
Loading maneuver chart data...
Computing Atmospheric mass density...
Loading historical data...
Loading historical data...
Loading historical data...
Loading historical data...
Loading historical data...
Loading historical data...
Loading historical data...

Documentation

Showing up to 5 results
|